User: anonymous   Login
Location: Asheville, NC
(35.6000°N, 82.5500°W)
Time: 17:21:08
(UTC-05:00)
Language:

KKS-1 - Orbit

View from above orbital plane
View from above orbital plane
View from above satellite
View from above satellite

Ground track
Ground track

The orbit data is extracted from the following two-line orbital elements,

1 33499U 09002H   18020.93530248 +.00000079 +00000-0 +19799-4 0  9999
2 33499 098.3464 197.9740 0010060 047.0038 313.2012 14.75286251483042
Epoch (UTC): 20 January 2018 22:26:50
Eccentricity: 0.0010060
inclination: 98.3464°
perigee height: 637 km
apogee height: 651 km
right ascension of ascending node: 197.9740°
argument of perigee: 47.0038°
revolutions per day: 14.75286251
mean anomaly at epoch: 313.2012°
orbit number at epoch: 48304

The dashed part of the orbit path shows where the satellite is in the earth's shadow,  

DLR